• In Hungary
  • List of Countries
  • For 7 days
  • Water Temperature
  • Satellite Maps
  • Weather Map
  • News
  • Weather Widgets
  • user-avatar
    Login

    Hourly Weather Zenica

    Today, 15 December, Friday

    Time Temperature Precipitation Wind Pressure Humidity
    00:00 +2°C° 0.1 mm 5 mps 670 mmHg 91%
    01:00 +3°C° 0 mm 5 mps 669 mmHg 89%
    02:00 +3°C° 0.1 mm 6 mps 669 mmHg 88%
    03:00 +3°C° 0.1 mm 6 mps 669 mmHg 87%
    04:00 +3°C° 0.1 mm 6 mps 669 mmHg 86%
    05:00 +4°C° 0.1 mm 6 mps 669 mmHg 86%
    06:00 +4°C° 0.1 mm 6 mps 669 mmHg 85%
    07:00 +5°C° 0 mm 2 mps 668 mmHg 84%
    08:00 +5°C° 0.2 mm 4 mps 668 mmHg 83%
    09:00 +6°C° 0.2 mm 5 mps 668 mmHg 81%
    10:00 +7°C° 0.2 mm 6 mps 668 mmHg 80%
    11:00 +7°C° 0.5 mm 6 mps 668 mmHg 80%
    12:00 +8°C° 0.5 mm 5 mps 668 mmHg 80%
    13:00 +8°C° 0 mm 4 mps 667 mmHg 79%
    14:00 +7°C° 1.2 mm 4 mps 667 mmHg 83%
    15:00 +6°C° 1.2 mm 4 mps 666 mmHg 87%
    16:00 +7°C° 1.2 mm 3 mps 666 mmHg 91%
    17:00 +5°C° 3.5 mm 4 mps 665 mmHg 92%
    18:00 +5°C° 3.5 mm 4 mps 664 mmHg 92%
    19:00 +5°C° 3.5 mm 5 mps 664 mmHg 92%
    20:00 +5°C° 3.4 mm 5 mps 663 mmHg 92%
    21:00 +4°C° 3.4 mm 6 mps 663 mmHg 92%
    22:00 +4°C° 3.4 mm 6 mps 663 mmHg 91%
    23:00 +4°C° 4.5 mm 6 mps 663 mmHg 92%

    Tomorrow, 16 December, Saturday

    Time Temperature Precipitation Wind Pressure Humidity
    00:00 +3°C° 4.5 mm 6 mps 663 mmHg 93%
    01:00 +2°C° 4.5 mm 6 mps 663 mmHg 94%
    02:00 +3°C° 1.5 mm 4 mps 664 mmHg 94%
    03:00 +2°C° 1.5 mm 3 mps 664 mmHg 94%
    04:00 +2°C° 1.5 mm 2 mps 665 mmHg 94%
    05:00 +2°C° 0.7 mm 2 mps 665 mmHg 93%
    06:00 +3°C° 0.7 mm 1 mps 666 mmHg 93%
    07:00 +2°C° 0.7 mm 1 mps 666 mmHg 92%
    08:00 +3°C° 0.2 mm 1 mps 667 mmHg 90%
    09:00 +3°C° 0.2 mm 1 mps 668 mmHg 88%
    10:00 +3°C° 0.2 mm 1 mps 668 mmHg 86%
    11:00 +4°C° 0 mm 1 mps 669 mmHg 83%
    12:00 +4°C° 0 mm 1 mps 669 mmHg 81%
    13:00 +5°C° 0 mm 1 mps 669 mmHg 78%
    14:00 +4°C° 0 mm 1 mps 669 mmHg 82%
    15:00 +3°C° 0 mm 1 mps 669 mmHg 85%
    16:00 +2°C° 0 mm 1 mps 669 mmHg 89%
    17:00 +2°C° 0 mm 1 mps 670 mmHg 90%
    18:00 +2°C° 0 mm 1 mps 670 mmHg 91%
    19:00 +1°C° 0 mm 1 mps 670 mmHg 92%
    20:00 +1°C° 0.2 mm 1 mps 670 mmHg 92%
    21:00 +1°C° 0.2 mm 1 mps 670 mmHg 93%
    22:00 -1°C° 0.2 mm 2 mps 671 mmHg 93%
    23:00 -1°C° 0.7 mm 2 mps 671 mmHg 93%

    Day after tomorrow, 17 December, Sunday

    Time Temperature Precipitation Wind Pressure Humidity
    00:00 -2°C° 0.7 mm 2 mps 671 mmHg 93%
    01:00 -2°C° 0.7 mm 2 mps 671 mmHg 93%
    02:00 -2°C° 0.9 mm 2 mps 671 mmHg 93%
    03:00 -4°C° 0.9 mm 3 mps 671 mmHg 93%
    04:00 -4°C° 0.9 mm 3 mps 671 mmHg 93%
    05:00 -4°C° 0.4 mm 3 mps 672 mmHg 93%
    06:00 -4°C° 0.4 mm 3 mps 672 mmHg 92%
    07:00 -5°C° 0.4 mm 3 mps 673 mmHg 92%
    08:00 -4°C° 0.3 mm 3 mps 673 mmHg 91%
    09:00 -4°C° 0.3 mm 3 mps 674 mmHg 90%
    10:00 -4°C° 0.3 mm 3 mps 674 mmHg 89%
    11:00 -4°C° 0.4 mm 3 mps 675 mmHg 88%
    12:00 -4°C° 0.4 mm 3 mps 675 mmHg 88%
    13:00 -4°C° 0.4 mm 3 mps 675 mmHg 87%
    14:00 -4°C° 0.3 mm 3 mps 675 mmHg 88%
    15:00 -5°C° 0.3 mm 3 mps 675 mmHg 89%
    16:00 -5°C° 0.3 mm 3 mps 676 mmHg 90%
    17:00 -5°C° 0.1 mm 3 mps 676 mmHg 91%
    18:00 -5°C° 0.1 mm 3 mps 677 mmHg 91%
    19:00 -5°C° 0.1 mm 2 mps 677 mmHg 92%
    20:00 -5°C° 0.1 mm 2 mps 678 mmHg 92%
    21:00 -5°C° 0.1 mm 2 mps 678 mmHg 92%
    22:00 -5°C° 0.1 mm 2 mps 679 mmHg 92%
    23:00 -5°C° 0.1 mm 2 mps 679 mmHg 92%

    18 December, Monday

    Time Temperature Precipitation Wind Pressure Humidity
    00:00 -6°C° 0.1 mm 3 mps 679 mmHg 92%
    01:00 -6°C° 0.1 mm 3 mps 680 mmHg 92%
    02:00 -6°C° 0.1 mm 3 mps 680 mmHg 92%
    03:00 -6°C° 0.1 mm 2 mps 680 mmHg 92%
    04:00 -6°C° 0.1 mm 2 mps 680 mmHg 92%
    05:00 -6°C° 0 mm 2 mps 680 mmHg 92%
    06:00 -7°C° 0 mm 2 mps 680 mmHg 92%
    07:00 -7°C° 0 mm 2 mps 681 mmHg 92%
    08:00 -4°C° 0 mm 1 mps 681 mmHg 88%
    09:00 -3°C° 0 mm 1 mps 681 mmHg 85%
    10:00 -2°C° 0 mm 1 mps 682 mmHg 81%
    11:00 -2°C° 0 mm 1 mps 681 mmHg 77%
    12:00 -1°C° 0 mm 1 mps 681 mmHg 74%
    13:00 -1°C° 0 mm 1 mps 681 mmHg 71%
    14:00 -2°C° 0 mm 1 mps 680 mmHg 74%
    15:00 -3°C° 0 mm 1 mps 680 mmHg 77%
    16:00 -4°C° 0 mm 1 mps 679 mmHg 81%
    17:00 -4°C° 0 mm 1 mps 679 mmHg 81%
    18:00 -6°C° 0 mm 1 mps 679 mmHg 81%
    19:00 -6°C° 0 mm 1 mps 679 mmHg 82%
    20:00 -6°C° 0 mm 1 mps 680 mmHg 81%
    21:00 -4°C° 0 mm 1 mps 680 mmHg 81%
    22:00 -4°C° 0 mm 1 mps 681 mmHg 80%
    23:00 -4°C° 0 mm 1 mps 681 mmHg 81%

    19 December, Tuesday

    Time Temperature Precipitation Wind Pressure Humidity
    00:00 -4°C° 0 mm 1 mps 681 mmHg 81%
    01:00 -4°C° 0 mm 1 mps 681 mmHg 82%
    02:00 -4°C° 0 mm 1 mps 681 mmHg 83%
    03:00 -4°C° 0 mm 1 mps 682 mmHg 84%
    04:00 -6°C° 0 mm 1 mps 682 mmHg 85%
    05:00 -4°C° 0 mm 1 mps 682 mmHg 86%
    06:00 -4°C° 0 mm 1 mps 683 mmHg 88%
    07:00 -4°C° 0 mm 1 mps 683 mmHg 89%
    08:00 -3°C° 0 mm 1 mps 684 mmHg 88%
    09:00 -2°C° 0 mm 1 mps 684 mmHg 86%
    10:00 -1°C° 0 mm 1 mps 685 mmHg 85%
    11:00 -3°C° 0.1 mm 2 mps 685 mmHg 84%
    12:00 -2°C° 0.1 mm 2 mps 685 mmHg 84%
    13:00 -2°C° 0.1 mm 2 mps 685 mmHg 83%
    14:00 -2°C° 0.1 mm 2 mps 685 mmHg 86%
    15:00 -3°C° 0.1 mm 2 mps 685 mmHg 89%
    16:00 -4°C° 0.1 mm 2 mps 685 mmHg 91%
    17:00 -4°C° 0.1 mm 2 mps 685 mmHg 92%
    18:00 -4°C° 0.1 mm 2 mps 685 mmHg 94%
    19:00 -5°C° 0.1 mm 2 mps 686 mmHg 95%
    20:00 -5°C° 0.1 mm 2 mps 686 mmHg 95%
    21:00 -5°C° 0.1 mm 2 mps 686 mmHg 95%
    22:00 -5°C° 0.1 mm 2 mps 686 mmHg 95%
    23:00 -5°C° 0 mm 2 mps 686 mmHg 95%

    20 December, Wednesday

    Time Temperature Precipitation Wind Pressure Humidity
    00:00 -4°C° 0 mm 1 mps 686 mmHg 95%
    01:00 -4°C° 0 mm 1 mps 686 mmHg 95%
    02:00 -4°C° 0 mm 1 mps 686 mmHg 95%
    03:00 -4°C° 0 mm 1 mps 686 mmHg 95%
    04:00 -4°C° 0 mm 1 mps 686 mmHg 94%
    05:00 -4°C° 0 mm 1 mps 686 mmHg 94%
    06:00 -6°C° 0 mm 1 mps 686 mmHg 94%
    07:00 -6°C° 0 mm 1 mps 686 mmHg 94%
    08:00 -4°C° 0 mm 1 mps 687 mmHg 91%
    09:00 -4°C° 0 mm 1 mps 687 mmHg 88%
    10:00 -5°C° 0 mm 2 mps 688 mmHg 85%
    11:00 -4°C° 0 mm 2 mps 688 mmHg 82%
    12:00 -4°C° 0 mm 2 mps 687 mmHg 80%
    13:00 -3°C° 0 mm 2 mps 687 mmHg 78%
    14:00 -2°C° 0 mm 1 mps 687 mmHg 81%
    15:00 -3°C° 0 mm 1 mps 687 mmHg 84%
    16:00 -4°C° 0 mm 1 mps 687 mmHg 87%
    17:00 -6°C° 0 mm 1 mps 687 mmHg 88%
    18:00 -7°C° 0 mm 1 mps 687 mmHg 89%
    19:00 -8°C° 0 mm 1 mps 687 mmHg 90%
    20:00 -8°C° 0 mm 1 mps 687 mmHg 89%
    21:00 -8°C° 0 mm 1 mps 687 mmHg 87%
    22:00 -8°C° 0 mm 1 mps 687 mmHg 86%
    23:00 -8°C° 0 mm 1 mps 687 mmHg 83%
    Show more